Location: Observatoire Alphonse-Tardif � St-N�r�e
(46.7267°N, 70.7033°W)
Time: 02:37:18
(UTC-04:00)

ISS - Visible Passes

Search period start: 16 July 2018 00:00
Search period end: 26 July 2018 00:00
Orbit: 402 x 408 km, 51.6° (Epoch: 16 July)

Date Brightness Start Highest point End Pass type
(mag) Time Alt. Az. Time Alt. Az. Time Alt. Az.
16 Jul -3.1 01:09:48 53° NNW 01:09:55 53° NNW 01:13:10 10° ENE visible
16 Jul -2.0 02:43:48 10° WNW 02:46:50 33° N 02:49:52 10° ENE visible
16 Jul -3.2 04:20:25 10° WNW 04:23:42 61° NNE 04:26:59 10° ESE visible
17 Jul -2.6 00:19:02 35° NE 00:19:02 35° NE 00:21:06 10° ENE visible
17 Jul -2.1 01:51:39 11° WNW 01:54:36 34° N 01:57:40 10° ENE visible
17 Jul -2.6 03:28:22 10° WNW 03:31:34 45° NNE 03:34:44 10° E visible
17 Jul -1.8 23:27:57 19° ENE 23:27:57 19° ENE 23:29:00 10° ENE visible
18 Jul -2.4 01:00:31 20° WNW 01:02:23 38° N 01:05:31 10° ENE visible
18 Jul -2.2 02:36:15 10° WNW 02:39:21 37° N 02:42:27 10° E visible
18 Jul -3.9 04:12:45 10° WNW 04:16:03 77° SSW 04:19:21 10° ESE visible
18 Jul -2.5 22:30:37 10° SW 22:35:10 24° E 22:36:49 10° ENE visible
19 Jul -2.8 00:07:09 11° W 00:10:11 48° NNW 00:13:24 10° ENE visible
19 Jul -2.0 01:44:04 10° WNW 01:47:07 33° N 01:50:10 10° ENE visible
19 Jul -3.5 03:20:39 10° WNW 03:23:57 70° NNE 03:27:14 10° ESE visible
19 Jul -2.7 21:39:03 10° SSW 21:41:44 24° SE 21:44:27 10° E visible
19 Jul -3.5 23:14:44 10° WSW 23:18:00 67° NNW 23:21:17 10° ENE visible
20 Jul -2.0 00:51:49 10° WNW 00:54:51 33° N 00:57:54 10° ENE visible
20 Jul -2.9 02:28:33 10° WNW 02:31:47 49° NNE 02:35:00 10° E visible
20 Jul -3.3 04:05:09 10° WNW 04:08:14 37° SW 04:11:18 10° SSE visible
20 Jul -4.0 22:22:36 10° WSW 22:25:52 81° SSE 22:29:10 10° ENE visible
20 Jul -2.2 23:59:31 10° WNW 00:02:35 36° N 00:05:41 10° ENE visible
21 Jul -2.4 01:36:25 10° WNW 01:39:33 39° NNE 01:42:41 10° E visible
21 Jul -3.9 03:12:56 10° WNW 03:16:12 64° SSW 03:19:27 10° SE visible
21 Jul -3.6 21:30:37 10° SW 21:33:47 48° SSE 21:36:59 10° ENE visible
21 Jul -2.6 23:07:11 10° W 23:10:20 43° NNW 23:13:30 10° ENE visible
22 Jul -2.1 00:44:14 10° WNW 00:47:17 34° N 00:50:20 10° ENE visible
22 Jul -3.8 02:20:46 10° WNW 02:24:04 81° NNE 02:27:22 10° ESE visible
22 Jul -2.4 03:57:51 10° W 04:00:14 18° SW 04:02:35 10° S visible
22 Jul -3.2 22:14:52 10° W 22:18:06 58° NNW 22:21:22 10° ENE visible
22 Jul -2.0 23:51:57 10° WNW 23:54:59 33° N 23:58:01 10° ENE visible
23 Jul -2.5 01:28:38 10° WNW 01:30:51 36° NW 01:30:51 36° NW visible
23 Jul -3.8 21:22:38 10° WSW 21:25:55 86° NNW 21:29:12 10° ENE visible
23 Jul -2.1 22:59:37 10° WNW 23:02:41 34° N 23:05:45 10° ENE visible
24 Jul -2.6 00:36:28 10° WNW 00:39:27 41° N 00:39:27 41° N visible
24 Jul -2.4 22:07:16 10° W 22:10:23 40° NNW 22:13:31 10° ENE visible
24 Jul -2.2 23:44:16 10° WNW 23:47:20 35° N 23:48:30 26° NE visible
25 Jul -1.1 01:20:46 10° WNW 01:21:07 12° WNW 01:21:07 12° WNW visible
25 Jul -2.9 21:14:53 10° W 21:18:06 51° NNW 21:21:20 10° ENE visible
25 Jul -2.1 22:51:59 10° WNW 22:55:00 33° N 22:57:44 12° ENE visible
